Terminal Aerodrome Forecast
Issued by NWS

Current Version | Previous Version | Graphics & Text | Print | Product List | Glossary On
Versions: 1 2 3 4 5 6 7 8 9 10 11 12 13 14 15 16 17 18 19 20 21 22 23 24 25 26 27 28 29 30 31 32 33 34 35 36 37 38 39 40 41 42 43 44 45 46 47 48 49 50
000
FTUS41 KRNK 191739
TAFLWB
TAF
KLWB 191739Z 1918/2018 14003KT P6SM OVC017
     FM192000 14005KT P6SM SCT018 OVC022
     FM200200 00000KT 6SM BR SCT035
     FM200600 09002KT 1/4SM FG OVC001
     FM201400 VRB03KT P6SM FEW250=

USA.gov is the U.S. government's official web portal to all federal, state and local government web resources and services.